OBJECT H, 59780

Orbit data source: Space-Track

You're viewing an Uncataloged Satellite

Recently launched and/or uncataloged satellites may have evolving metadata. Metadata may include but not limited to: Owner, Maufacturer, Bus, Motor, and Mission.

OBJECT H, 59780 is a satellite owned by Byuro 1440 (CIS) in SSO that was launched on Thu, 16 May 2024 UTC via a SOYUZ-2-1B launch vehicle from the Plesetsk Missile And Space Complex (PKMTR). Unknown objects in Earth's orbit typically refer to objects detected orbiting the Earth but have not yet been identified or cataloged. These objects could be anything from previously untracked satellites, spent rocket stages, debris from satellite collisions, or even natural meteoroids temporarily captured by Earth's gravity.

Loading next visibility...
OBJECT H details
Identifier
59780, 2024-092H
Orbit
SSO
Last TLE update12 hours ago
Origin
Flag of CISByuro 1440 (CIS)
ManufacturerByuro 1440
MissionOperational spacecraft
Bus & MotorRASSVET-2, Unknown motor
Mass~200 kg wet, ~200 kg dry
Launch date (UTC)
2024-05-16 (7 months ago)
Launch vehicle
SOYUZ-2-1B
Launch site
Plesetsk Missile And Space Complex (PKMTR)
Object typeUnknown
Shape & HBRUnknown
Radar Cross SectionMedium (>0.1 m² and <1 m²)

Expand to show TLE details & history

TLE from 12 hours ago
0 OBJECT H
1 59780U 24092H   24356.12129616  .00000519  00000-0  21211-3 0  9999
2 59780  98.6230 106.4831 0012569  13.0809 347.0697 14.31409993 31199
Epoch: 2024-12-21T02:54Z
Definitive object data (Epoch: 2024-12-21T02:54:39.988Z)
Latitude-0.00007°
Longitude-27.36051°
Altitude781.176 km
Speed7.468 km/s
True Right ascension07h 05m 55s
True Declination0° 00' 00"
Sunlit
Object was in full shadow at TLE epoch
Visualization TLE readout
Latitude60.51713°
Longitude168.62172°
Altitude799.904 km
Speed7.458 km/s
Apparent Right ascension23h 49m 30s
Apparent Declination19° 47' 50"
Sunlit
Object is in daylight
Visualization observer readout
Local Sidereal Time14:14:32
Azimuth36.7° NE
Elevation-21.381°
Doppler factor1
Orbital elements
Apogee altitude793.163 km
Perigee altitude775.159 km
Semi-major axis7,162.298 km
Eccentricity0.0012569
Inclination98.623°
RAAN106.4831°
Arg. of periapsis13.0809°
True anomaly347.03742°
Mean anomaly347.0697°
Eccentric anomaly347.05357°
Mean motion3.58067 °/min
BSTAR0.00021211
Orbital period100.54 mins
Loading maneuver chart data...
Loading historical data...
Loading historical data...
Loading historical data...
Loading historical data...
Loading historical data...
Loading historical data...
Loading historical data...

OBJECT H Visibility forecast

Observer location: undefined°, undefined

Span
Click to sort rows by Start time (UTC) header in descending order
Start Az.
Max El. time (UTC)
Max El. Az.
Max El.
End time (UTC)
End Az.
10 mins2024-12-21 20:15:17.697Z19.288° NNE2024-12-21 20:20:17.697Z97.108° ESE42.504°2024-12-21 20:25:17.697Z184.223° SSW
4 mins2024-12-21 21:57:17.697Z322.804° NNW2024-12-21 21:59:17.697Z297.033° NW15.231°2024-12-21 22:01:17.697Z271.743° WNW
8 mins2024-12-22 07:33:17.697Z165.625° S2024-12-22 07:37:17.697Z339.421° N44.796°2024-12-22 07:41:17.697Z346.265° N
|